Location: Quedlinburg
(51.7921°N, 11.1414°E)
Time: 04:27:25
(UTC+02:00)

STRAND 1 - Pass Details

Date: 19 March 2026
Orbit: 761 x 775 km, 98.4° (Epoch: 16 April)

Event Time Altitude Azimuth Distance (km) Brightness Sun altitude
Rises 03:37:52 0° 121° (ESE) 3,239 ? -24.6°
Reaches altitude 10° 03:40:35 10° 107° (ESE) 2,314 ? -24.3°
Maximum altitude 03:44:29 23° 57° (ENE) 1,609 ? -23.8°
Drops below altitude 10° 03:48:23 10° 7° (N) 2,318 ? -23.3°
Sets 03:51:06 0° 353° (N) 3,246 ? -22.9°
